User: anonymous   Login
Location: Rancho Del Sol Observatory
(38.7214°N, 120.6350°W)
Time: 11:10:37
(UTC-07:00)
Language:

Cosmos 2221 Rocket - Orbit

View from above orbital plane
View from above orbital plane
View from above satellite
View from above satellite

Ground track
Ground track

The orbit data is extracted from the following two-line orbital elements,

1 22237U 92080B   16147.45561834  .00000144  00000-0  16617-4 0  9994
2 22237  82.5108 117.4618 0020645  33.9889  85.2634 14.78262629266309
Epoch (UTC): 26 May 2016 10:56:05
Eccentricity: 0.0020645
inclination: 82.5108°
perigee height: 620 km
apogee height: 649 km
right ascension of ascending node: 117.4618°
argument of perigee: 33.9889°
revolutions per day: 14.78262629
mean anomaly at epoch: 85.2634°
orbit number at epoch: 26630

The dashed part of the orbit path shows where the satellite is in the earth's shadow,  

DLR